EHI
0 0 0 0 0 0 0 0 0 0 0 0 0 0 0 0 0 0 0 0 0 0 0 0 0 0 0 0 0 0 0 0 0 0 0 0 0 0 0 0 0 0 0
0 0 0 0 0 0 0 0 0 0 0 0 0 0 0 0 0 0 0 0 0 0 0 0 0 0 0 0 0 0 0 0 0 0 0 0 0 0 0 0 0 0 0
0 0 0 0 0 0 0 0 0 0 0 0 0 0 0 0 0 0 0 0 0 0 0 0 0 0 0 0 0 0 0 0 0 0 0 0 0 0 0 0 0 0 0
0 0 0 0 0 0 0 0 0 0 0 0 0 0 0 0 0 0 0 0 0 0 0 0 0 0 0 0 0 0 0 0 0 0 0 0 0 0 0 0 0 0 0
0 0 0 0 0 0 0 0 0 0 0 0 0 0 0 0 0 0 0 0 0 0 0 0 0 0 0 0 0 0 0 0 0 0 0 0 0 0 0 0 0 0 0
0 0 0 0 0 0 0 0 0 0 0 0 0 0 0 0 0 0 0 0 0 0 0 0 0 0 0 0 0 0 0 0 0 0 0 0 0 0 0 0 0 0 0
0 0 0 0 0 0 0 0 0 0 0 0 0 0 0 0 0 0 0 0 0 0 0 0 0 0 0 0 0 0 0 0 0 0 0 0 0 0 0 0 0 0 0
0 0 0 0 0 0 0 0 0 0 0 0 0 0 0 0 0 0 0 0 0 0 0 0 0 0 0 0 0 0 0 0 0 0 0 0 0 0 0 0 0 0 0
0 0 0 0 0 0 0 0 0 0 0 0 0 0 0 0 0 0 0 0 0 0 0 0 0 0 0 0 0 0 0 0 0 0 0 0 0 0 0 0 0 0 0
0 0 0 0 0 0 0 0 0 0 0 0 0 0 0 0 0 0 0 0 0 0 0 0 0 0 0 0 0 0 0 0 0 0 0 0 0 0 0 0 0 0 0
0 0 0 0 0 0 0 0 0 0 0 0 0 0 0 0 0 0 0 0 0 0 0 0 0 0 0 0 0 0 0 0 0 0 0 0 0 0 0 0 0 0 0
0 0 0 0 0 0 0 0 0 0 0 0 0 0 0 0 0 0 0 0 0 0 0 0 0 0 0 0 0 0 0 0 0 0 0 0 0 0 0 0 0 0 0
0 0 0 0 0 0 0 0 0 0 0 0 0 0 0 0 0 0 0 0 0 0 0 0 0 0 0 0 0 0 0 0 0 0 0 0 0 0 0 0 0 0 0
0 0 0 0 0 0 0 0 0 0 0 0 0 0 0 0 0 0 0 0 0 0 0 0 0 0 0 0 0 0 0 0 0 0 0 0 0 0 0 0 0 0 0
0 0 0 0 0 0 0 0 0 0 0 0 0 0 0 0 0 0 0 0 0 0 0 0 0 0 0 0 0 0 0 0 0 0 0 0 0 0 0 0 0 0 0
0 0 0 0 0 0 0 0 0 0 0 0 0 0 0 0 0 0 0 0 0 0 0 0 0 0 0 0 0 0 0 0 0 0 0 0 0 0 0 0 0 0 0
0 0 0 0 0 0 0 0 0 0 0 0 0 0 0 0 0 0 0 0 0 0 0 0 0 0 0 0 0 0 0 0 0 0 0 0 0 0 0 0 0 0 0
0 0 0 0 0 0 0 0 0 0 0 0 0 0 0 0 0 0 0 0 0 0 0 0 0 0 0 0 0 0 0 0 0 0 0 0 0 0 0 0 0 0 0
0 0 0 0 0 0 0 0 0 0 0 0 0 0 0 0 0 0 0 0 0 0 0 0 0 0 0 0 0 0 0 0 0 0 0 0 0 0 0 0 0 0 0
0 0 0 0 0 0 0 0 0 0 0 0 0 0 0 0 0 0 0 0 0 0 0 0 0 0 0 0 0 0 0 0 0 0 0 0 0 0 0 0 0 0 0
0 0 0 0 0 0 0 0 0 0 0 0 0 0 0 0 0 0 0 0 0 0 0 0 0 0 0 0 0 0 0 0 0 0 0 0 0 0 0 0 0 0 0
0 0 0 0 0 0 0 0 0 0 0 0 0 0 0 0 0 0 0 0 0 0 0 0 0 0 0 0 0 0 0 0 0 0 0 0 0 0 0 0 0 0 0
0 0 0 0 0 0 0 0 0 0 0 0 0 0 0 0 0 0 0 0 0 0 0 0 0 0 0 0 0 0 0 0 0 0 0 0 0 0 0 0 0 0 0
0 0 0 0 0 0 0 0 0 0 1 0 0 0 0 0 0 0 0 0 0 0 0 0 0 0 0 0 0 0 0 0 0 0 0 0 0 0 0 0 0 0 0
0 0 0 0 0 0 0 0 0 0 0 0 0 0 0 0 0 0 0 0 0 0 0 0 0 0 0 0 0 0 0 0 0 0 0 0 0 0 0 0 0 0 0
0 0 0 0 0 0 0 0 0 0 0 0 0 0 0 0 0 0 0 0 0 0 0 0 0 0 0 0 0 0 0 0 0 0 0 0 0 0 0 0 0 0 0
Wind_Speed
5 5 3 3 3 2 2 1 1 0 1 1 2 2 2 2 2 1 1 5 6 5 5 6 6 7 7 7 7 8 9 9 10 10 10 11 11 11 11 12 12 13 13
5 5 4 4 3 3 2 2 1 1 1 1 2 2 2 2 1 1 1 2 4 5 5 6 6 7 7 7 7 8 8 9 10 10 11 11 11 11 12 12 12 12 13
7 6 5 4 4 3 3 2 2 2 1 1 2 2 2 2 1 1 0 0 2 4 5 5 6 6 6 7 7 8 8 9 10 10 11 11 11 12 12 12 12 13 13
9 7 5 5 5 4 3 3 2 2 2 2 1 1 1 1 1 1 1 1 0 1 3 5 5 6 6 7 8 8 9 9 10 10 11 11 12 12 12 13 13 13 13
10 8 6 6 6 5 4 3 3 2 2 2 1 1 1 1 1 1 1 1 1 0 0 2 2 4 5 7 8 9 9 10 10 11 11 12 12 12 13 14 14 14 14
12 9 7 7 7 5 5 5 4 3 2 2 1 2 2 2 2 2 2 2 2 1 1 1 1 1 3 6 7 9 10 11 11 11 12 12 13 13 14 14 15 15 15
12 10 7 8 7 7 7 7 5 5 3 2 3 3 3 3 3 3 3 3 3 2 2 2 2 3 2 3 5 8 10 11 11 12 12 13 13 14 14 15 15 16 16
12 10 10 8 8 7 7 7 6 4 3 3 3 3 3 4 4 4 3 3 4 3 3 3 3 3 4 3 2 6 9 11 12 13 13 14 15 15 15 16 16 17 17
12 11 12 10 9 8 7 8 8 7 5 4 3 3 3 3 1 3 4 4 4 4 4 4 4 4 4 3 3 3 7 10 12 14 14 15 15 16 16 17 17 17 18
12 12 11 11 10 8 8 8 8 7 6 5 4 3 3 3 3 3 3 4 5 5 5 4 5 4 4 4 3 5 8 10 12 14 15 15 16 17 17 17 18 18 18
12 12 11 10 10 8 9 9 8 8 6 6 5 4 4 3 5 4 5 4 4 4 4 5 4 4 4 4 4 4 8 11 12 14 15 16 17 18 18 18 19 19 19
9 12 11 10 10 8 9 9 8 9 7 7 6 5 4 4 4 5 6 6 6 4 4 4 5 4 4 4 5 5 9 11 13 14 15 16 17 18 19 19 20 20 20
9 11 11 11 9 9 9 8 8 8 9 8 7 6 5 5 4 4 5 6 6 4 4 4 4 4 4 4 4 5 10 12 13 15 16 16 17 18 19 20 20 20 21
9 11 12 11 10 9 8 8 7 8 7 8 8 7 5 5 4 4 4 4 6 5 5 6 3 4 4 5 5 7 9 12 13 15 16 17 18 19 19 20 20 21 21
8 10 11 11 10 9 9 9 7 8 7 7 7 7 6 4 4 4 4 4 4 5 6 4 4 4 4 5 5 8 9 11 14 16 17 18 19 19 20 20 21 21 21
9 10 10 10 10 9 9 9 7 7 8 7 5 6 6 4 4 4 4 4 5 6 6 5 5 5 5 6 8 9 10 13 15 16 17 18 19 19 20 20 21 21 21
9 10 10 10 10 10 9 9 8 8 8 7 6 7 7 6 4 4 4 4 5 6 8 8 6 6 8 9 8 8 9 10 10 15 17 18 19 19 19 20 20 21 21
9 9 9 9 9 9 9 9 9 8 8 8 8 7 7 5 6 5 4 6 6 6 7 10 8 7 9 9 9 10 9 8 10 13 17 18 19 19 19 19 20 20 20
9 8 9 9 9 9 8 8 8 8 8 7 7 7 7 7 7 5 6 6 5 6 7 8 9 7 7 7 9 9 10 9 10 11 15 16 17 18 18 19 19 19 19
9 9 8 8 8 7 7 7 7 7 7 6 7 7 6 7 7 7 6 6 6 6 7 7 8 7 7 7 7 8 8 8 8 9 11 12 14 17 18 18 18 18 18
8 8 8 7 7 6 6 7 7 6 6 6 6 6 6 6 7 6 5 5 6 6 6 6 7 7 7 7 7 7 9 9 9 8 8 8 9 9 10 13 14 15 17
8 8 8 7 7 5 7 9 7 6 6 6 6 6 5 6 7 8 9 9 7 7 7 7 7 8 9 9 8 7 8 9 9 6 8 9 8 9 9 9 13 16 17
8 8 7 7 7 7 9 10 8 6 5 5 5 5 4 4 6 6 7 9 9 10 10 9 9 10 10 9 9 9 9 9 10 9 9 10 9 10 9 9 15 16 17
8 7 7 7 6 6 9 9 8 6 4 4 4 4 4 4 4 4 5 6 7 7 8 8 8 9 8 8 8 8 9 10 10 8 8 9 9 9 9 9 12 14 16
7 7 6 7 6 6 9 9 7 4 3 4 3 3 4 4 4 5 5 6 7 6 6 9 10 10 11 11 9 6 7 7 9 8 6 7 8 10 10 9 8 12 14
7 6 6 5 6 6 8 8 7 4 4 3 3 3 3 4 4 5 5 5 6 7 6 6 7 8 8 8 9 7 6 7 8 7 5 6 8 8 8 6 7 8 9
Wind_Direction
186 181 186 182 191 189 193 209 226 262 318 342 344 330 331 335 337 342 64 46 16 9 12 17 17 15 18 23 18 11 3 358 356 353 350 347 345 342 339 337 337 335 334
191 191 194 195 200 202 209 228 234 264 294 313 321 321 323 327 327 330 6 87 55 29 22 18 16 12 12 13 9 3 356 353 350 347 345 342 339 336 334 333 332 330 328
197 197 202 201 201 201 207 222 222 256 283 287 290 315 321 326 314 314 349 359 97 70 38 21 17 10 6 2 358 354 349 345 342 340 338 336 333 331 330 328 326 324 324
203 202 205 206 200 200 208 217 231 243 255 273 294 314 291 276 272 292 209 178 175 117 83 42 20 9 1 354 349 345 341 337 334 333 332 331 330 328 326 324 322 321 319
204 207 208 206 199 202 208 209 225 246 258 269 288 292 279 259 251 234 210 179 170 216 320 80 36 12 355 345 340 336 332 329 327 327 326 326 325 323 322 321 320 319 317
204 207 207 207 201 202 205 206 208 214 243 254 256 260 255 245 236 228 215 193 190 214 263 301 286 25 345 336 333 330 327 324 323 322 323 322 321 320 319 318 317 316 316
204 204 204 204 203 207 207 207 205 207 212 221 238 244 227 222 225 214 219 221 209 221 242 267 291 305 303 309 322 327 325 322 320 320 320 319 318 317 316 317 316 315 314
204 202 204 202 202 206 206 203 200 207 199 210 245 261 250 212 203 210 219 232 238 232 242 261 281 291 301 302 337 323 322 320 319 318 317 316 315 314 313 314 314 313 312
204 203 206 204 201 203 204 202 201 206 207 199 227 250 264 272 274 203 220 231 240 246 251 261 271 279 286 291 298 302 316 315 314 314 313 313 312 311 310 311 311 310 310
204 205 205 204 201 202 202 200 201 205 207 205 201 233 261 298 280 275 215 224 240 254 261 266 266 267 270 278 286 301 307 309 310 310 311 311 311 310 310 310 309 308 307
203 203 204 203 202 202 203 197 197 202 207 213 205 199 213 233 252 266 274 264 252 250 260 266 263 263 264 270 274 295 302 304 306 307 308 308 307 307 307 307 306 305 304
200 202 201 202 203 202 202 199 198 202 206 212 210 206 206 214 223 237 263 276 278 270 265 261 258 256 261 267 270 292 293 298 301 302 303 303 304 304 304 304 303 301 301
197 201 198 201 202 202 200 196 196 200 204 207 210 214 219 228 230 240 258 273 279 280 269 252 245 254 260 266 270 282 283 291 296 298 299 300 300 301 301 301 300 300 300
199 197 198 200 200 198 195 193 196 199 202 207 214 216 218 220 220 226 245 266 277 272 258 262 255 251 259 271 284 283 281 286 292 295 297 298 298 297 298 297 297 297 298
197 195 195 196 197 196 195 193 199 199 199 205 210 213 218 217 218 225 231 238 255 276 279 271 263 257 267 274 280 279 283 288 290 291 293 295 295 296 296 296 296 296 296
191 190 191 193 193 194 194 193 198 200 200 204 205 209 215 220 219 219 225 234 240 255 271 283 278 282 281 279 280 281 283 289 282 287 291 293 294 294 294 294 295 295 296
190 190 190 190 191 192 192 194 199 195 200 202 203 212 218 218 221 222 224 229 237 245 263 277 280 282 283 282 283 283 286 286 286 287 291 293 294 294 295 294 294 295 295
189 190 189 189 189 190 191 196 199 198 201 206 208 213 217 213 223 224 227 232 239 243 259 275 282 283 281 283 287 288 288 286 286 290 290 291 293 294 294 294 295 295 297
185 184 185 187 188 189 192 197 200 201 204 209 209 213 216 215 225 226 231 240 246 251 255 269 280 286 287 288 291 290 290 290 291 290 288 288 290 292 293 294 296 298 298
182 182 183 185 186 185 187 189 196 200 204 210 212 215 216 219 230 233 235 244 252 257 261 268 277 285 290 294 293 293 294 292 292 292 289 291 292 292 291 292 295 297 299
178 178 178 179 179 181 184 185 191 198 203 209 213 215 220 227 238 240 243 249 251 257 264 269 276 283 285 292 293 297 294 299 297 295 297 296 295 292 293 293 294 297 299
174 174 176 177 178 180 177 183 191 196 202 210 216 220 223 225 236 244 251 255 256 260 265 270 276 279 285 292 297 296 297 300 299 301 299 297 295 291 293 295 302 304 302
172 173 176 179 183 180 174 182 189 197 204 213 219 223 226 231 239 249 253 254 256 258 262 272 278 280 288 293 296 294 292 293 293 300 299 293 294 292 296 296 299 300 302
172 173 176 179 179 173 171 178 182 196 203 213 222 228 234 239 240 253 259 262 265 263 267 270 277 283 290 296 293 291 293 293 292 292 293 292 298 299 301 297 298 300 302
167 169 171 173 174 168 167 173 178 187 196 210 218 224 234 244 251 254 257 264 273 276 275 278 286 290 294 295 298 297 296 294 295 297 294 287 298 304 300 295 300 302 301
159 156 159 167 169 166 158 166 176 184 195 205 212 217 231 253 263 255 261 267 275 286 293 291 287 287 288 288 288 285 287 288 294 295 300 298 299 310 301 297 306 307 304